Simultaneous Nadir Overpasses (SNOs) Predictions

Prediction of SNOs between METOP-C and LANDSAT-8 Satellite Orbit:

Table of predicted SNOs for the next 14.0 days since TLE Epoch: 1/11/2020
Index Date (METOP-C) Time (METOP-C) Lat,Lon (METOP-C) SZA (METOP-C ) Date (LANDSAT-8) Time (LANDSAT-8) Lat,Lon (LANDSAT-8) SZA (LANDSAT-8 ) Distance(km) Time Diff (sec)
1 01/12/2020 19:34:24 -81.06, 105.19 75.66 01/12/2020 19:34:45 -81.07, 105.29 75.64 1.82 21
2 01/12/2020 20:25:02 81.09, -86.77 104.42 01/12/2020 20:24:10 81.10, -86.67 104.41 1.94 52
3 01/15/2020 15:08:12 -81.06, 171.65 76.18 01/15/2020 15:09:00 -81.05, 171.47 76.19 3.30 48
4 01/15/2020 15:58:50 81.08, -20.39 103.89 01/15/2020 15:58:25 81.08, -20.51 103.86 2.17 25
5 01/18/2020 10:42:02 -81.04,-122.25 76.80 01/18/2020 10:43:16 -81.04,-122.29 76.78 0.89 74
6 01/18/2020 11:32:40 81.06, 45.62 103.27 01/18/2020 11:32:41 81.06, 45.71 103.27 1.44 1
7 01/18/2020 12:23:19 -81.09,-146.20 76.65 01/18/2020 12:22:07 -81.09,-146.26 76.68 1.35 72
8 01/21/2020 07:06:29 81.06, 112.01 102.64 01/21/2020 07:06:57 81.05, 111.98 102.64 0.95 28
9 01/21/2020 07:57:09 -81.08, -80.11 77.31 01/21/2020 07:56:23 -81.08, -79.98 77.32 2.28 46
10 01/24/2020 02:40:17 81.05, 178.41 101.96 01/24/2020 02:41:12 81.04, 178.30 101.96 2.02 55




NCC Satellite Simultaneous Nadir Overpasses (SNOs) Prediction Service
